| time (UTC) | temp F | wind direction | speed MPH | gust MPH | rain 1hr in | rain 24hr in | rain mn in | humidity % | barometer mb |
| 20260902094501 | 0 | 0.0 | 0.0 | 0.00 | 0.00 | 0.00 | 1020.3 | ||
| 20260902093056 | 0 | 4 | 0.0 | 1.0 | 0.00 | 0.00 | 0.00 | 89 | 1020.5 |
| 20260902091654 | 74 | 59 | 0.0 | 1.0 | 0.00 | 0.00 | 0.00 | 88 | 1020.2 |
| 20260902090048 | 74 | 59 | 0.0 | 1.0 | 0.00 | 0.00 | 0.00 | 87 | 1020.1 |
| 20260902084550 | 75 | 58 | 0.0 | 1.0 | 0.00 | 0.00 | 0.00 | 87 | 1020.2 |
| 20260902083043 | 75 | 85 | 0.0 | 1.0 | 0.00 | 0.00 | 0.00 | 86 | 1020.3 |
| 20260902081545 | 75 | 96 | 0.0 | 1.0 | 0.00 | 0.00 | 0.00 | 86 | 1020.2 |
| 20260902080040 | 76 | 5 | 0.0 | 1.0 | 0.00 | 0.00 | 0.00 | 85 | 1020.3 |
| 20260902074534 | 76 | 75 | 0.0 | 1.0 | 0.00 | 0.00 | 0.00 | 84 | 1020.1 |
| 20260902073035 | 76 | 94 | 0.0 | 2.0 | 0.00 | 0.00 | 0.00 | 84 | 1019.8 |
| 20260902071628 | 76 | 106 | 0.0 | 2.0 | 0.00 | 0.00 | 0.00 | 83 | 1019.6 |
| 20260902070032 | 77 | 86 | 0.0 | 3.0 | 0.00 | 0.00 | 0.00 | 82 | 1019.7 |
| 20260902064535 | 77 | 119 | 0.0 | 6.0 | 0.00 | 0.00 | 0.00 | 81 | 1019.6 |
| 20260902063017 | 78 | 207 | 1.0 | 6.0 | 0.00 | 0.00 | 0.00 | 81 | 1019.4 |
| 20260902061516 | 78 | 100 | 2.0 | 7.0 | 0.00 | 0.00 | 0.00 | 80 | 1019.5 |
| 20260902060015 | 79 | 110 | 2.0 | 5.0 | 0.00 | 0.00 | 0.00 | 81 | 1019.6 |
| 20260902054512 | 79 | 64 | 0.0 | 13.0 | 0.00 | 0.00 | 0.00 | 81 | 1019.5 |
| 20260902053008 | 78 | 12 | 3.0 | 9.0 | 0.00 | 0.00 | 0.00 | 85 | 1019.3 |
| 20260902051504 | 78 | 352 | 0.0 | 1.0 | 0.00 | 0.00 | 0.00 | 85 | 1019.0 |
| 20260902050002 | 78 | 352 | 0.0 | 0.0 | 0.00 | 0.00 | 0.00 | 85 | 1019.1 |
| 20260902044559 | 79 | 352 | 0.0 | 1.0 | 0.00 | 0.00 | 0.00 | 86 | 1019.2 |
| 20260902043059 | 79 | 352 | 0.0 | 0.0 | 0.00 | 0.00 | 0.00 | 86 | 1019.0 |
| 20260902041558 | 80 | 55 | 0.0 | 0.0 | 0.00 | 0.00 | 0.00 | 85 | 1019.0 |
| 20260902040050 | 80 | 51 | 0.0 | 1.0 | 0.00 | 0.00 | 0.00 | 85 | 1018.8 |
| 20260902034545 | 80 | 221 | 0.0 | 0.0 | 0.00 | 0.00 | 0.00 | 85 | 1018.5 |
| 20260902033043 | 81 | 221 | 0.0 | 1.0 | 0.00 | 0.00 | 0.00 | 84 | 1018.1 |
| 20260902031542 | 81 | 221 | 0.0 | 0.0 | 0.00 | 0.00 | 0.00 | 83 | 1018.1 |
| 20260902030039 | 82 | 221 | 0.0 | 1.0 | 0.00 | 0.00 | 0.00 | 82 | 1017.9 |
| 20260902024537 | 82 | 221 | 0.0 | 0.0 | 0.00 | 0.00 | 0.00 | 79 | 1017.6 |
| 20260902023038 | 82 | 217 | 0.0 | 0.0 | 0.00 | 0.00 | 0.00 | 80 | 1017.6 |
| 20260902021535 | 82 | 217 | 0.0 | 3.0 | 0.00 | 0.00 | 0.00 | 81 | 1017.7 |
| 20260902020048 | 83 | 298 | 0.0 | 1.0 | 0.00 | 0.00 | 0.00 | 81 | 1017.8 |
| 20260902014531 | 83 | 259 | 0.0 | 1.0 | 0.00 | 0.00 | 0.00 | 79 | 1017.5 |
| 20260902013129 | 83 | 253 | 0.0 | 1.0 | 0.00 | 0.00 | 0.00 | 80 | 1017.5 |
| 20260902011529 | 83 | 207 | 0.0 | 0.0 | 0.00 | 0.00 | 0.00 | 79 | 1017.4 |
| 20260902010033 | 83 | 207 | 0.0 | 2.0 | 0.00 | 0.00 | 0.00 | 79 | 1017.2 |
| 20260902004525 | 84 | 210 | 1.0 | 2.0 | 0.00 | 0.00 | 0.00 | 78 | 1016.9 |
| 20260902003024 | 85 | 211 | 0.0 | 1.0 | 0.00 | 0.00 | 0.00 | 74 | 1016.6 |
| 20260902001521 | 85 | 205 | 0.0 | 0.0 | 0.00 | 0.00 | 0.00 | 73 | 1016.0 |
| 20260902000027 | 86 | 205 | 0.0 | 0.0 | 0.00 | 0.00 | 0.00 | 71 | 1016.1 |
| 20260901234518 | 87 | 205 | 0.0 | 1.0 | 0.00 | 0.00 | 0.00 | 73 | 1016.1 |
| 20260901233014 | 89 | 205 | 0.0 | 0.0 | 0.00 | 0.00 | 0.00 | 67 | 1016.3 |
| 20260901231517 | 90 | 295 | 0.0 | 0.0 | 0.00 | 0.00 | 0.00 | 66 | 1016.3 |
| 20260901230010 | 91 | 295 | 0.0 | 1.0 | 0.00 | 0.00 | 0.00 | 63 | 1016.4 |
| 20260901224505 | 92 | 295 | 0.0 | 1.0 | 0.00 | 0.00 | 0.00 | 59 | 1016.5 |
| 20260901223002 | 93 | 295 | 0.0 | 1.0 | 0.00 | 0.00 | 0.00 | 58 | 1016.4 |
| 20260901221600 | 94 | 187 | 2.0 | 5.0 | 0.00 | 0.00 | 0.00 | 57 | 1016.5 |
| 20260901220059 | 94 | 305 | 0.0 | 3.0 | 0.00 | 0.00 | 0.00 | 57 | 1016.4 |
| 20260901214558 | 94 | 341 | 0.0 | 3.0 | 0.00 | 0.00 | 0.00 | 57 | 1016.5 |
| 20260901213052 | 95 | 306 | 3.0 | 6.0 | 0.00 | 0.00 | 0.00 | 53 | 1016.6 |
| 20260901211550 | 96 | 210 | 2.0 | 4.0 | 0.00 | 0.00 | 0.00 | 54 | 1016.8 |
| 20260901210105 | 96 | 305 | 0.0 | 3.0 | 0.00 | 0.00 | 0.00 | 53 | 1016.8 |
| 20260901204547 | 95 | 297 | 1.0 | 4.0 | 0.00 | 0.00 | 0.00 | 53 | 1016.9 |
| 20260901203103 | 95 | 360 | 2.0 | 6.0 | 0.00 | 0.00 | 0.00 | 53 | 1016.9 |
| 20260901201539 | 95 | 360 | 1.0 | 3.0 | 0.00 | 0.00 | 0.00 | 53 | 1016.9 |
| 20260901200047 | 95 | 297 | 1.0 | 4.0 | 0.00 | 0.00 | 0.00 | 55 | 1017.2 |
| 20260901194539 | 95 | 216 | 1.0 | 7.0 | 0.00 | 0.00 | 0.00 | 55 | 1017.2 |
| 20260901193030 | 95 | 307 | 0.0 | 6.0 | 0.00 | 0.00 | 0.00 | 56 | 1017.5 |
| 20260901191526 | 95 | 1 | 1.0 | 9.0 | 0.00 | 0.00 | 0.00 | 57 | 1017.6 |
| 20260901190040 | 94 | 360 | 2.0 | 10.0 | 0.00 | 0.00 | 0.00 | 57 | 1017.7 |
| 20260901184519 | 94 | 347 | 4.0 | 7.0 | 0.00 | 0.00 | 0.00 | 57 | 1017.7 |
| 20260901183025 | 94 | 359 | 1.0 | 7.0 | 0.00 | 0.00 | 0.00 | 59 | 1017.6 |
| 20260901181514 | 92 | 208 | 0.0 | 4.0 | 0.00 | 0.00 | 0.00 | 64 | 1017.7 |
| 20260901180010 | 93 | 44 | 1.0 | 4.0 | 0.00 | 0.00 | 0.00 | 62 | 1017.9 |
| 20260901174504 | 91 | 333 | 0.0 | 4.0 | 0.00 | 0.00 | 0.00 | 65 | 1018.1 |
| 20260901173002 | 91 | 354 | 0.0 | 3.0 | 0.00 | 0.00 | 0.00 | 63 | 1018.1 |
| 20260901171605 | 91 | 18 | 1.0 | 3.0 | 0.00 | 0.00 | 0.00 | 64 | 1018.3 |
| 20260901170100 | 92 | 347 | 0.0 | 5.0 | 0.00 | 0.00 | 0.00 | 63 | 1018.5 |
| 20260901164553 | 92 | 352 | 0.0 | 7.0 | 0.00 | 0.00 | 0.00 | 63 | 1018.5 |
| 20260901163051 | 91 | 217 | 2.0 | 7.0 | 0.00 | 0.00 | 0.00 | 62 | 1018.7 |
| 20260901161554 | 92 | 6 | 2.0 | 8.0 | 0.00 | 0.00 | 0.00 | 63 | 1018.8 |
| 20260901160046 | 92 | 340 | 2.0 | 8.0 | 0.00 | 0.00 | 0.00 | 62 | 1018.8 |
| 20260901154540 | 92 | 360 | 2.0 | 10.0 | 0.00 | 0.00 | 0.00 | 63 | 1019.0 |
| 20260901153040 | 90 | 214 | 2.0 | 6.0 | 0.00 | 0.00 | 0.00 | 65 | 1019.0 |
| 20260901151533 | 90 | 357 | 1.0 | 8.0 | 0.00 | 0.00 | 0.00 | 66 | 1019.3 |
| 20260901150033 | 89 | 240 | 1.0 | 6.0 | 0.00 | 0.00 | 0.00 | 68 | 1019.3 |
| 20260901144524 | 88 | 359 | 2.0 | 5.0 | 0.00 | 0.00 | 0.00 | 70 | 1019.3 |
| 20260901143020 | 87 | 195 | 2.0 | 6.0 | 0.00 | 0.00 | 0.00 | 71 | 1019.3 |
| 20260901141515 | 86 | 289 | 1.0 | 3.0 | 0.00 | 0.00 | 0.00 | 74 | 1019.3 |
| 20260901140019 | 85 | 355 | 0.0 | 3.0 | 0.00 | 0.00 | 0.00 | 75 | 1019.3 |
| 20260901134511 | 85 | 277 | 1.0 | 5.0 | 0.00 | 0.00 | 0.00 | 76 | 1019.4 |
| 20260901133007 | 84 | 208 | 1.0 | 3.0 | 0.00 | 0.00 | 0.00 | 79 | 1019.5 |
| 20260901131603 | 83 | 208 | 0.0 | 5.0 | 0.00 | 0.00 | 0.00 | 80 | 1019.8 |
| 20260901130054 | 82 | 251 | 0.0 | 3.0 | 0.00 | 0.00 | 0.00 | 81 | 1020.0 |
| 20260901124550 | 81 | 304 | 0.0 | 3.0 | 0.00 | 0.00 | 0.00 | 82 | 1019.9 |
| 20260901123045 | 80 | 317 | 0.0 | 0.0 | 0.00 | 0.00 | 0.00 | 85 | 1019.9 |
| 20260901121539 | 78 | 215 | 0.0 | 0.0 | 0.00 | 0.00 | 0.00 | 89 | 1019.8 |
| 20260901120039 | 76 | 337 | 0.0 | 0.0 | 0.00 | 0.00 | 0.00 | 94 | 1019.7 |
| 20260901114529 | 75 | 302 | 0.0 | 0.0 | 0.00 | 0.00 | 0.00 | 95 | 1019.7 |
| 20260901113029 | 74 | 302 | 0.0 | 0.0 | 0.00 | 0.00 | 0.00 | 95 | 1019.6 |
| 20260901111527 | 74 | 302 | 0.0 | 0.0 | 0.00 | 0.00 | 0.00 | 95 | 1019.7 |
| 20260901110022 | 0 | 0.0 | 0.0 | 0.00 | 0.00 | 0.00 | 1019.7 | ||
| 20260901104536 | 0 | 0.0 | 0.0 | 0.00 | 0.00 | 0.00 | 1019.6 | ||
| 20260901103010 | 0 | 0.0 | 0.0 | 0.00 | 0.00 | 0.00 | 1019.6 | ||
| 20260901101510 | 0 | 0.0 | 0.0 | 0.00 | 0.00 | 0.00 | 1019.3 | ||
| 20260901100100 | 0 | 0.0 | 0.0 | 0.00 | 0.00 | 0.00 | 1019.3 |